Naples, FL

5:29 PM EDT on July 20, 2017 (GMT -0400)
Naples Municipal

Weather History for KAPF - December, 2011

Change the Weather History Date:

Sunday, December 11, 2011

  Actual Average Record
Temperature  
Mean Temperature 72 °F 67 °F  
Max Temperature 79 °F 77 °F 88 °F (2001)
Min Temperature 65 °F 58 °F 35 °F (1962)
Degree Days  
Heating Degree Days 0 2  
Month to date heating degree days 8 17  
Since 1 July heating degree days 10 31  
Cooling Degree Days 7 4  
Month to date cooling degree days 56 54  
Year to date cooling degree days 4174 3873  
Growing Degree Days 22 (Base 50)    
Moisture  
Dew Point 66 °F    
Average Humidity 83    
Maximum Humidity 97    
Minimum Humidity 69    
Precipitation  
Precipitation 0.06 in 0.05 in 1.51 in (1967)
Month to date precipitation 0.23 0.51  
Year to date precipitation 37.98 50.95  
Snow  
Snow 0.00 in - - ()
Month to date snowfall 0.0  
Since 1 July snowfall 0.0  
Snow Depth 0.00 in    
Sea Level Pressure  
Sea Level Pressure 30.10 in    
Wind  
Wind Speed 9 mph (NE)    
Max Wind Speed 18 mph    
Max Gust Speed 26 mph    
Visibility 9 miles    
Events Rain    
T = Trace of Precipitation, MM = Missing Value Source: NWS Daily Summary

Daily Weather History Graph

Daily Weather History Graph

Search for Another Location

Airport or City:

Trip Planner

Search our weather history database for the weather conditions in past years. The results will help you decide how hot, cold, wet, or windy it might be!

Date:

Astronomy

Dec. 11, 2011 Rise Set
Actual Time 7:04 AM EST 5:36 PM EST
Civil Twilight 6:38 AM EST 6:01 PM EST
Nautical Twilight 6:10 AM EST 6:30 PM EST
Astronomical Twilight 5:42 AM EST 6:58 PM EST
Moon 6:44 PM EST (12/11) 7:51 AM EST (12/11)
Length of Visible Light 11h 22m
Length of Day
10h 32m
Full, 99% of the Moon is Illuminated
Dec 11
Full
Dec 17
Last Quarter
Dec 24
New
Jan 1
First Quarter
Jan 9
Full

Hourly Weather History & Observations

Time (EST) Temp. Dew Point Humidity Pressure Visibility Wind Dir Wind Speed Gust Speed Precip Events Conditions
12:53 AM 66.9 °F 64.0 °F 90% 30.09 in 10.0 mi NE 8.1 mph - N/A   Clear
1:53 AM 66.0 °F 63.0 °F 90% 30.09 in 10.0 mi NE 8.1 mph - N/A   Clear
2:53 AM 66.0 °F 64.0 °F 93% 30.09 in 10.0 mi NNE 6.9 mph - N/A   Clear
3:50 AM 66.2 °F 64.4 °F 94% 30.07 in 10.0 mi NE 8.1 mph - N/A   Scattered Clouds
3:53 AM 66.0 °F 64.0 °F 93% 30.07 in 10.0 mi NE 5.8 mph - N/A   Scattered Clouds
4:01 AM 66.2 °F 64.4 °F 94% 30.07 in 10.0 mi NE 6.9 mph - N/A   Mostly Cloudy
4:53 AM 66.0 °F 64.9 °F 96% 30.07 in 9.0 mi NE 8.1 mph - N/A   Overcast
5:53 AM 66.0 °F 64.9 °F 96% 30.08 in 7.0 mi NE 10.4 mph - N/A   Overcast
6:53 AM 66.0 °F 64.9 °F 96% 30.09 in 7.0 mi NE 8.1 mph - N/A   Overcast
7:53 AM 66.0 °F 64.0 °F 93% 30.11 in 6.0 mi NNE 9.2 mph - N/A   Overcast
8:53 AM 66.0 °F 64.0 °F 93% 30.13 in 6.0 mi NNE 11.5 mph - N/A   Overcast
9:53 AM 69.8 °F 64.4 °F 83% 30.14 in 9.0 mi NNE 8.1 mph - N/A   Mostly Cloudy
10:42 AM 71.6 °F 66.2 °F 83% 30.14 in 10.0 mi NE 11.5 mph - N/A   Mostly Cloudy
10:53 AM 72.0 °F 66.9 °F 84% 30.14 in 10.0 mi NE 12.7 mph - N/A   Mostly Cloudy
11:04 AM 73.4 °F 66.2 °F 78% 30.14 in 10.0 mi NE 10.4 mph - N/A   Mostly Cloudy
11:53 AM 73.9 °F 66.9 °F 79% 30.13 in 10.0 mi ENE 11.5 mph - N/A   Mostly Cloudy
12:53 PM 77.0 °F 66.9 °F 71% 30.09 in 10.0 mi NE 9.2 mph - N/A   Mostly Cloudy
1:24 PM 78.8 °F 66.2 °F 65% 30.09 in 10.0 mi ENE 10.4 mph - N/A   Mostly Cloudy
1:51 PM 73.4 °F 69.8 °F 88% 30.09 in 8.0 mi East 12.7 mph 21.9 mph 0.05 in Rain Light Rain
1:53 PM 73.0 °F 69.1 °F 87% 30.09 in 8.0 mi East 12.7 mph 21.9 mph 0.06 in Rain Heavy Rain
2:00 PM 73.4 °F 69.8 °F 88% 30.09 in 8.0 mi East 9.2 mph - N/A Rain Light Rain
2:07 PM 73.4 °F 69.8 °F 88% 30.09 in 8.0 mi East 9.2 mph - N/A Rain Light Rain
2:53 PM 73.0 °F 69.1 °F 87% 30.09 in 10.0 mi ENE 6.9 mph - N/A   Overcast
3:53 PM 75.0 °F 69.1 °F 82% 30.09 in 10.0 mi ENE 9.2 mph - N/A   Overcast
4:53 PM 71.1 °F 64.9 °F 81% 30.10 in 9.0 mi East 12.7 mph - N/A   Overcast
5:53 PM 70.0 °F 66.0 °F 87% 30.10 in 10.0 mi ENE 9.2 mph - N/A   Overcast
6:53 PM 70.0 °F 68.0 °F 93% 30.12 in 10.0 mi NNE 5.8 mph - N/A   Overcast
7:53 PM 70.0 °F 68.0 °F 93% 30.12 in 10.0 mi NE 5.8 mph - N/A   Overcast
8:53 PM 69.1 °F 66.9 °F 93% 30.12 in 10.0 mi ENE 8.1 mph - N/A   Clear
9:53 PM 68.0 °F 66.9 °F 96% 30.13 in 10.0 mi ENE 6.9 mph - N/A   Clear
10:53 PM 68.0 °F 66.0 °F 93% 30.12 in 10.0 mi ENE 6.9 mph - N/A   Clear
11:53 PM 66.9 °F 66.0 °F 97% 30.12 in 10.0 mi ENE 6.9 mph - N/A   Clear